Location: Peebles
(55.6412°N, 3.1714°W)
Time: 23:18:11
(UTC+01:00)

Daily predictions for brighter satellites

Satellite Brightness Start Highest point End
(mag) Time Altitude Azimuth Time Altitude Azimuth Time Altitude Azimuth
USA 238 DEB 3.9 19:46:46 10° NW 19:53:53 79° NE 20:01:19 10° ESE
USA 238 3.9 19:46:52 10° NW 19:53:59 79° NE 20:01:26 10° ESE
Cosmos 2297 Rocket 3.6 19:49:05 10° WSW 19:54:26 41° NW 19:59:49 10° NNE
In-Cosmos 22 4.4 19:50:18 10° N 19:55:27 48° ENE 20:00:36 10° SE
COSMOS 2406 4.4 19:50:48 10° NNW 19:55:41 28° NNE 20:00:32 10° E
NOSS 3-1 (C) 3.9 19:52:03 10° WSW 19:57:52 66° NNW 20:04:51 10° NE
Cosmos 2082 4.4 19:53:32 10° SW 19:59:06 61° NW 20:04:44 10° NNE
Cosmos 1025 Rocket 3.4 19:58:48 10° N 20:03:02 46° ENE 20:07:16 10° SE
CZ-2C R/B 3.6 19:59:01 10° NNE 20:03:38 26° E 20:08:17 10° SSE
ARGOS 3.1 20:00:17 10° SSE 20:05:37 74° ENE 20:11:02 10° NNW
CZ-4B R/B 4.5 20:03:04 10° N 20:05:43 21° WNW 20:08:23 10° WSW
Cosmos 1707 2.7 20:02:34 10° N 20:06:25 63° ENE 20:10:13 10° SSE
Cosmos 990 Rocket 3.9 20:02:20 10° SSW 20:07:27 75° ESE 20:12:37 10° NNE
NOSS 2-3 (E) 4.2 20:03:07 10° WSW 20:07:39 70° NNW 20:13:22 10° NE
Cosmos 1782 Rocket 3.5 20:03:52 10° S 20:08:16 71° E 20:12:44 10° NNE
Cosmos 1908 Rocket 3.9 20:06:00 10° SSW 20:10:22 70° WNW 20:14:47 10° N
Cosmos 1743 4.0 20:06:46 10° SSW 20:10:27 45° WNW 20:14:11 10° N
NOSS 8 (F) 4.3 20:07:50 10° SSW 20:10:51 53° SE 20:13:52 10° ENE
Meteor 2-11 Rocket 4.5 20:05:44 10° S 20:11:53 82° E 20:18:05 10° NNE
CREW DRAGON DEMO-1 DEB 3.6 20:12:47 10° WSW 20:15:38 38° S 20:18:00 14° ESE
Cosmos 2233 Rocket 4.2 20:10:14 10° SSW 20:16:29 80° WNW 20:22:42 10° N
USA 186 1.9 20:14:22 10° SSE 20:17:27 54° ENE 20:20:41 10° N
Nadezhda 4 Rocket 4.1 20:14:22 10° N 20:20:26 57° ENE 20:26:27 10° SSE
Ariane Rocket 3.0 20:15:32 10° SSE 20:20:33 65° ENE 20:25:37 10° NNW
SJ-6B 3.0 20:17:10 10° SE 20:20:47 48° ENE 20:24:27 10° N
Cosmos 494 Rocket 4.3 20:15:58 10° NNW 20:21:07 51° NE 20:26:06 11° SE
NOSS 3-2 (A) 4.1 20:14:17 10° NW 20:21:30 82° SW 20:29:46 10° SE
CZ-2C R/B 3.8 20:16:28 10° S 20:21:44 60° W 20:27:18 10° NNW
FREGAT/IRIS 2.8 20:20:39 11° SE 20:22:56 39° ENE 20:25:25 10° N
Cosmos 2263 Rocket 2.1 20:18:00 10° SSW 20:23:34 76° ESE 20:29:11 10° NE
NOSS 2-2 (C) 4.1 20:22:36 10° S 20:25:41 28° SE 20:29:10 10° ENE
Cosmos 1975 Rocket 3.9 20:22:36 10° NNW 20:26:51 52° W 20:31:02 10° S
HJ-1C 4.5 20:23:54 10° S 20:27:05 47° W 20:30:19 10° NNW
Lacrosse 4 Rocket 3.2 20:24:08 10° NNW 20:27:11 20° NNE 20:30:13 10° ENE
Meteor 2-9 Rocket 4.4 20:23:14 10° SSW 20:29:06 84° WNW 20:34:54 10° NNE
MOS 1 4.3 20:23:39 10° SSE 20:29:19 69° ENE 20:35:01 10° NNW
NOSS 5 (C) 4.5 20:26:30 10° NW 20:29:26 53° NNE 20:31:42 18° ESE
COSMO-SKYMED 1 4.2 20:26:18 10° N 20:30:21 39° WNW 20:34:23 10° SW
Cosmos 1844 Rocket 3.6 20:26:14 10° SSE 20:30:44 26° ESE 20:35:15 10° NE
Cosmos 2034 Rocket 4.3 20:25:13 10° SSE 20:31:15 47° E 20:37:16 10° NNE
ATLAS CENTAUR R/B 2.9 20:31:14 10° W 20:34:39 30° NNW 20:37:59 10° NE
Cosmos 2227 4.3 20:31:17 10° SSW 20:37:02 87° WNW 20:42:48 10° NE
SPOT 3 Rocket 3.9 20:32:57 12° SE 20:37:34 47° ENE 20:42:30 10° N
Cosmos 1898 Rocket 3.7 20:32:52 10° SSW 20:38:03 76° WNW 20:43:17 10° NNE
USA 234 4.3 20:37:42 10° E 20:42:35 22° SE 20:47:26 10° S
SWAS 4.4 20:38:16 10° NW 20:42:35 78° NE 20:45:53 17° SE
Lacrosse 5 rocket 1.5 20:41:21 10° W 20:45:41 82° NNW 20:49:27 15° ENE
Resurs 01 Rocket 2.3 20:42:53 18° ESE 20:45:46 39° ENE 20:49:55 10° N
Cosmos 1833 Rocket 3.5 20:42:32 10° NNW 20:47:48 38° NE 20:51:25 18° E
MetOp-A 4.1 20:44:13 10° SSE 20:49:34 84° ENE 20:54:59 10° NNW
Sich 1 Rocket 3.8 20:46:41 10° SSW 20:51:12 77° WNW 20:55:48 10° N
MOS 1 Rocket 3.2 20:46:37 10° NNE 20:51:12 84° WNW 20:55:34 10° SSW
Cosmos 2227 Rocket 4.2 20:47:25 10° W 20:52:11 27° NNW 20:56:59 10° NNE
Cosmos 372 Rocket 4.0 20:47:01 10° SSW 20:52:12 63° ESE 20:57:22 10° NNE
OBJECT-B 0.8 20:52:33 21° SSE 20:54:31 62° ENE 20:57:45 10° N
Cosmos 1626 2.9 20:51:22 10° N 20:54:48 34° ENE 20:56:03 26° ESE
Meteor 1-15 Rocket 4.5 20:50:10 10° SSE 20:55:32 47° E 21:01:01 10° NNE
NOSS 3-2 (C) 4.1 20:49:07 10° NW 20:56:19 80° SW 21:03:03 17° SE
USA 229 DEB 4.4 20:49:45 10° W 20:56:19 53° NNW 21:03:21 10° ENE
USA 229 4.4 20:49:50 10° W 20:56:25 53° NNW 21:03:26 10° ENE
DMSP B5D2-2 4.2 20:52:28 10° NNE 20:57:40 52° E 21:02:50 10° S
SJ 16-02 3.4 20:55:22 10° WSW 20:59:16 30° NW 21:03:10 10° NNE
Meteor 1-12 Rocket 4.3 20:54:30 10° S 21:00:25 85° ESE 21:06:15 10° NNE
Cosmos 2150 Rocket 4.2 20:57:32 10° S 21:02:44 52° ESE 21:08:02 10° NE
ARIANE 5 R/B 3.4 21:01:02 25° ESE 21:02:47 35° ENE 21:06:43 10° N
Abrixas rocket 3.6 21:00:50 10° SW 21:02:58 19° S 21:03:00 19° S
BREEZE-M TANK 4.2 20:57:08 10° SW 21:03:09 23° S 21:04:37 19° SSE
Cosmos 1634 Rocket 4.4 20:59:03 14° SSE 21:03:54 39° E 21:09:34 10° NNE
Cosmos 1937 Rocket 4.0 21:00:55 10° SW 21:06:08 64° WNW 21:11:20 10° NNE
NOSS 3-1 (A) 4.3 21:02:31 10° W 21:08:25 53° NNW 21:15:27 10° ENE
Okean 2 Rocket 3.2 21:05:08 10° SSW 21:09:39 77° WNW 21:14:09 10° N
Cosmos 1125 Rocket 3.8 21:05:38 10° S 21:10:37 42° ESE 21:15:38 10° NE
Cosmos 2285 Rocket 4.3 21:04:52 10° S 21:10:43 42° ESE 21:16:38 10° NE
Landsat 7 4.5 21:09:07 27° ESE 21:11:00 38° ENE 21:15:24 10° N
Okean 1 Rocket 3.4 21:08:19 18° SSE 21:11:19 46° E 21:15:38 10° NNE
NOSS 8 (H) 4.3 21:10:43 10° WSW 21:13:45 72° NNW 21:16:08 16° NE
Cosmos 1300 Rocket 3.9 21:13:34 10° SSW 21:17:58 67° WNW 21:22:25 10° N
Cosmos 1464 Rocket 4.2 21:12:40 10° SSW 21:18:48 72° WNW 21:25:02 10° N
ERS-1 Rocket 4.1 21:17:27 24° E 21:18:59 29° ENE 21:23:16 10° N
Cosmos 1092 Rocket 3.9 21:13:50 10° NNW 21:20:02 88° E 21:25:37 13° S
Meteor 2-13 Rocket 4.5 21:14:11 10° NNW 21:20:24 88° W 21:26:06 12° S
Meteor 2-5 Rocket 3.7 21:15:36 10° NNW 21:21:15 85° ENE 21:25:27 19° SSE
Resurs 1-3 3.7 21:18:56 19° S 21:22:06 79° WSW 21:26:32 10° NNW
Cosmos 2195 Rocket 4.4 21:15:56 10° N 21:22:16 84° ENE 21:27:21 16° SSE
NOSS 2-2 (E) 3.2 21:18:53 10° SW 21:22:30 85° SE 21:26:57 10° NE
Cosmos 1674 3.2 21:20:22 10° NNW 21:24:10 59° W 21:27:00 17° S
Cosmos 1805 3.2 21:24:13 31° SSE 21:25:55 61° E 21:29:48 10° NNE
Cosmos 2026 Rocket 4.0 21:19:50 10° N 21:26:14 79° ENE 21:30:53 20° SSE
ATLAS 2AS CENTAUR R/B 3.6 21:22:07 10° S 21:28:44 30° ESE 21:35:17 10° ENE
Cosmos 2082 Rocket 2.8 21:24:37 10° NNW 21:29:58 42° NE 21:32:16 29° E
ISS -1.9 21:27:41 10° SW 21:29:07 19° SSW 21:29:07 19° SSW
NOSS 2-2 (D) 3.1 21:27:35 10° SW 21:31:11 82° SE 21:35:33 10° NE
H-2A R/B 4.4 21:28:11 10° SW 21:32:03 22° W 21:36:02 10° NW
CENTAUR R/B 3.4 21:25:28 10° NW 21:33:12 63° SW 21:39:09 22° SSE
USA 245 4.3 21:35:14 20° NNE 21:35:14 20° NNE 21:36:13 10° N
Cosmos 1733 3.2 21:36:18 56° ESE 21:36:35 57° E 21:40:22 10° NNE
Cosmos 1892 Rocket 3.5 21:32:19 10° N 21:36:39 62° ENE 21:37:39 47° SE
CZ-2C R/B 3.6 21:32:58 10° NNE 21:37:23 58° ESE 21:38:59 36° SSE
Meteor 1-22 Rocket 4.5 21:34:25 25° SSE 21:37:46 53° E 21:43:38 10° NNE
Cosmos 1428 Rocket 4.4 21:31:37 10° NNW 21:37:57 87° E 21:42:07 23° SSE
ATLAS 3B R/B 2.7 21:33:58 10° NW 21:40:47 81° NE 21:44:10 34° ESE
COSMOS 2406 3.1 21:35:06 10° NNW 21:40:50 82° NE 21:43:09 38° SE
SL-14 R/B 3.1 21:38:26 10° NNW 21:42:22 88° ENE 21:43:14 53° SSE
Meteor 1-24 Rocket 3.6 21:38:33 10° NNW 21:44:02 85° WSW 21:47:07 28° S
CZ-2C R/B 3.0 21:38:55 10° NNE 21:44:24 70° WNW 21:49:57 10° SSW
SPOT 1/Viking Rocket 3.7 21:43:21 41° ESE 21:44:55 58° ENE 21:50:00 10° N
Cosmos 1269 Rocket 4.1 21:40:14 10° NNW 21:45:33 73° WSW 21:48:00 33° S
CARTOSAT-1 4.2 21:46:20 38° ENE 21:46:34 38° ENE 21:50:35 10° N
Cosmos 2279 Rocket 4.2 21:44:35 34° SE 21:46:48 49° E 21:52:48 10° NNE
Spot 2 Rocket 3.4 21:51:06 46° SE 21:52:34 72° ENE 21:57:37 10° NNW
Exosat Rocket 3.3 21:51:14 10° SSW 21:56:31 75° ESE 22:01:34 10° NNE
Cosmos 1766 3.3 21:58:56 46° SSW 22:00:00 76° WNW 22:03:59 10° N
Cosmos 1470 4.2 22:03:19 26° NE 22:03:19 26° NE 22:05:19 10° NNE
Terra 2.5 22:02:36 38° ENE 22:02:49 38° ENE 22:07:13 10° N
MetOp-B 4.2 22:01:41 36° S 22:03:55 75° WSW 22:09:18 10° NNW
Cosmos 2278 Rocket 3.7 22:07:57 20° ENE 22:07:57 20° ENE 22:10:05 10° NE
Cosmos 1844 3.6 21:59:53 10° SSW 22:05:35 83° ESE 22:11:15 10° NE
Lacrosse 4 Rocket 1.5 22:02:37 10° NW 22:06:37 58° NE 22:06:37 58° NE
Cosmos 909 Rocket 4.0 22:00:35 10° NW 22:07:28 78° NE 22:09:31 46° ESE
Okean 1-7 Rocket 3.5 22:03:06 10° NNW 22:07:43 88° ENE 22:08:19 68° SSE
Cosmos 2263 Rocket 3.9 22:02:59 10° W 22:08:01 33° NW 22:13:07 10° NNE
Cosmos 1844 Rocket 2.8 22:08:32 10° SW 22:14:07 77° NW 22:19:46 10° NNE
ATLAS CENTAUR R/B 3.3 22:11:37 10° NW 22:14:30 20° N 22:15:57 17° NNE
NOSS 2-2 (C) 3.9 22:12:17 10° WSW 22:15:56 56° NNW 22:19:37 14° NE
Cosmos 1602 Rocket 4.2 22:13:45 10° N 22:17:25 44° NE 22:17:25 44° NE
Cosmos 2251 Rocket 3.4 22:13:45 10° NNW 22:19:10 74° ENE 22:19:53 64° ESE
IGS 5A 3.7 22:20:34 59° WSW 22:20:51 61° WSW 22:24:59 10° NNW
Resurs 01 Rocket 3.0 22:20:28 25° SW 22:22:19 35° W 22:26:27 10° NNW
Cosmos 1340 Rocket 3.2 22:24:25 60° N 22:24:25 60° N 22:27:47 10° NNE
Lacrosse 5 rocket 1.5 22:20:39 10° WNW 22:25:05 79° N 22:25:05 79° N
USA 234 3.2 22:24:43 42° E 22:26:38 55° SSE 22:33:03 10° SW
OBJECT-B 3.7 22:25:45 10° WSW 22:27:16 13° W 22:28:54 10° WNW
Cosmos 2266 Rocket 3.8 22:22:24 10° N 22:28:30 76° ENE 22:29:34 60° SE
SPOT 5 2.9 22:28:43 71° ESE 22:29:09 77° ENE 22:34:31 10° NNW
Cosmos 1626 3.9 22:26:47 10° NNW 22:29:58 27° W 22:30:36 25° WSW
Cosmos 1626 Rocket 3.7 22:27:24 10° N 22:31:22 67° NNE 22:31:22 67° NNE
Cosmos 1833 Rocket 2.8 22:26:30 10° NW 22:32:07 64° WSW 22:33:07 54° SSW
Cosmos 1455 Rocket 3.4 22:39:30 61° N 22:39:30 61° N 22:43:10 10° NNE
ARIANE 5 R/B 3.6 22:38:35 36° WSW 22:39:13 38° W 22:43:18 10° NNW
Cosmos 1655 Rocket 4.0 22:33:44 10° NNW 22:40:00 77° W 22:41:39 51° S
Cosmos 1461 3.7 22:44:19 10° NW 22:48:46 55° NNE 22:48:46 55° NNE
Meteor 2-14 Rocket 4.3 22:48:15 10° N 22:54:26 74° ENE 22:54:48 72° ESE
NOSS 3-4 (A) 3.8 22:57:18 50° ENE 22:57:18 50° ENE 23:02:12 10° NE
NOSS 3-4 (C) 3.8 22:57:31 48° ENE 22:57:31 48° ENE 23:02:18 10° NE
H-2A R/B 4.2 22:53:10 10° N 22:56:37 51° NNW 22:56:37 51° NNW
ERS-1 Rocket 3.2 22:57:27 62° WSW 22:57:30 62° WSW 23:02:31 10° NNW
Cosmos 614 Rocket 4.0 22:53:11 10° NNW 22:57:58 70° NNE 22:57:58 70° NNE
Cosmos 1726 4.4 23:06:10 20° N 23:06:10 20° N 23:07:25 10° NNE
Meteor 2-16 Rocket 4.4 23:01:35 10° N 23:07:40 67° ENE 23:07:40 67° ENE
Cosmos 2082 Rocket 2.6 23:08:47 10° NW 23:14:06 54° WSW 23:14:06 54° WSW
MOS 1-B Rocket 4.5 23:10:20 10° NNE 23:16:59 59° E 23:16:59 59° E
ATLAS 2AS CENTAUR R/B 2.9 23:10:58 10° SW 23:18:58 82° SE 23:26:47 10° NE
Cosmos 1745 Rocket 4.5 23:16:17 10° N 23:21:53 46° ENE 23:21:53 46° ENE
ALOS 2 4.4 23:31:49 26° NNE 23:31:49 26° NNE 23:34:15 10° N
Cosmos 1244 Rocket 4.4 23:24:28 10° N 23:30:28 82° NNE 23:30:28 82° NNE
ATLAS 3B R/B 3.5 23:24:55 10° WNW 23:31:04 36° WSW 23:31:25 36° SW
Aureole 1 Rocket 4.2 23:25:42 10° NNW 23:30:42 48° NNE 23:30:42 48° NNE
Cosmos 1953 4.4 23:34:39 26° N 23:34:39 26° N 23:36:33 10° N
COSMOS 2455 4.2 23:39:35 27° ENE 23:39:35 27° ENE 23:42:20 10° NE
Terra 3.1 23:41:30 36° WNW 23:41:30 36° WNW 23:45:06 10° NNW
NOSS 3-1 (C) 4.2 23:35:08 10° NW 23:41:51 59° NNE 23:44:17 42° E
Lacrosse 4 Rocket 3.8 23:41:41 10° WNW 23:42:54 17° WNW 23:42:54 17° WNW
Cosmos 2278 Rocket 2.6 23:49:46 61° N 23:49:46 61° N 23:54:39 10° NNE
SME Rocket 4.0 23:46:11 10° NNE 23:52:10 64° NNW 23:52:10 64° NNW
ATLAS CENTAUR R/B 3.9 23:50:56 10° NW 23:52:06 17° NNW 23:52:06 17° NNW
Cosmos 407 Rocket 4.4 23:49:17 10° NNW 23:52:55 44° NW 23:52:55 44° NW
